• In Uzbekistan
  • List of Countries
  • For 7 days
  • Water Temperature
  • Satellite Maps
  • Weather Map
  • Weather Widgets
  • user-avatar
    Login

    Hourly Weather Baraut

    Today, 19 September, Wednesday

    Time Temperature Precipitation Wind Pressure Humidity
    00:00 +27°C° 0 mm 1 mps 734 mmHg 54%
    01:00 +27°C° 0 mm 1 mps 734 mmHg 54%
    02:00 +26°C° 0 mm 1 mps 734 mmHg 55%
    03:00 +26°C° 0 mm 1 mps 734 mmHg 56%
    04:00 +26°C° 0 mm 1 mps 734 mmHg 57%
    05:00 +26°C° 0 mm 1 mps 734 mmHg 61%
    06:00 +27°C° 0 mm 1 mps 734 mmHg 60%
    07:00 +28°C° 0 mm 1 mps 735 mmHg 58%
    08:00 +29°C° 0 mm 1 mps 735 mmHg 56%
    09:00 +31°C° 0 mm 2 mps 735 mmHg 51%
    10:00 +34°C° 0 mm 2 mps 735 mmHg 45%
    11:00 +36°C° 0 mm 3 mps 735 mmHg 40%
    12:00 +36°C° 0 mm 3 mps 734 mmHg 38%
    13:00 +37°C° 0 mm 4 mps 734 mmHg 35%
    14:00 +38°C° 0 mm 4 mps 733 mmHg 33%
    15:00 +37°C° 0 mm 4 mps 733 mmHg 37%
    16:00 +36°C° 0 mm 3 mps 732 mmHg 42%
    17:00 +35°C° 0 mm 3 mps 732 mmHg 46%
    18:00 +32°C° 0 mm 2 mps 732 mmHg 48%
    19:00 +31°C° 0 mm 2 mps 732 mmHg 51%
    20:00 +29°C° 0 mm 1 mps 733 mmHg 53%
    21:00 +29°C° 0 mm 1 mps 733 mmHg 54%
    22:00 +28°C° 0 mm 1 mps 733 mmHg 55%
    23:00 +28°C° 0 mm 1 mps 733 mmHg 55%

    Tomorrow, 20 September, Thursday

    Time Temperature Precipitation Wind Pressure Humidity
    00:00 +26°C° 0 mm 0 mps 733 mmHg 56%
    01:00 +25°C° 0 mm 0 mps 733 mmHg 57%
    02:00 +25°C° 0 mm 0 mps 733 mmHg 57%
    03:00 +25°C° 0 mm 0 mps 733 mmHg 58%
    04:00 +24°C° 0 mm 0 mps 733 mmHg 58%
    05:00 +24°C° 0 mm 0 mps 733 mmHg 59%
    06:00 +25°C° 0 mm 0 mps 734 mmHg 57%
    07:00 +29°C° 0 mm 1 mps 734 mmHg 55%
    08:00 +30°C° 0 mm 1 mps 735 mmHg 53%
    09:00 +32°C° 0 mm 1 mps 735 mmHg 47%
    10:00 +34°C° 0 mm 1 mps 735 mmHg 42%
    11:00 +34°C° 0 mm 0 mps 735 mmHg 37%
    12:00 +36°C° 0 mm 1 mps 734 mmHg 35%
    13:00 +37°C° 0 mm 1 mps 734 mmHg 33%
    14:00 +39°C° 0 mm 1 mps 734 mmHg 31%
    15:00 +38°C° 0 mm 2 mps 734 mmHg 35%
    16:00 +37°C° 0 mm 2 mps 733 mmHg 40%
    17:00 +36°C° 0 mm 2 mps 733 mmHg 44%
    18:00 +34°C° 0 mm 2 mps 733 mmHg 48%
    19:00 +32°C° 0 mm 2 mps 734 mmHg 51%
    20:00 +31°C° 0 mm 2 mps 734 mmHg 54%
    21:00 +30°C° 0 mm 2 mps 734 mmHg 57%
    22:00 +30°C° 0 mm 2 mps 735 mmHg 60%
    23:00 +29°C° 0 mm 3 mps 735 mmHg 63%

    Day after tomorrow, 21 September, Friday

    Time Temperature Precipitation Wind Pressure Humidity
    00:00 +29°C° 0 mm 3 mps 735 mmHg 66%
    01:00 +29°C° 0 mm 3 mps 735 mmHg 68%
    02:00 +28°C° 0 mm 3 mps 735 mmHg 70%
    03:00 +28°C° 0 mm 3 mps 735 mmHg 70%
    04:00 +28°C° 0 mm 3 mps 735 mmHg 70%
    05:00 +28°C° 0 mm 3 mps 735 mmHg 71%
    06:00 +29°C° 0 mm 3 mps 736 mmHg 69%
    07:00 +29°C° 0 mm 4 mps 736 mmHg 68%
    08:00 +30°C° 0 mm 4 mps 737 mmHg 67%
    09:00 +33°C° 0 mm 4 mps 737 mmHg 63%
    10:00 +34°C° 0 mm 4 mps 737 mmHg 59%
    11:00 +36°C° 0 mm 4 mps 737 mmHg 55%
    12:00 +36°C° 0 mm 4 mps 736 mmHg 53%
    13:00 +37°C° 0 mm 4 mps 736 mmHg 50%
    14:00 +38°C° 0 mm 3 mps 735 mmHg 48%
    15:00 +37°C° 0 mm 3 mps 735 mmHg 51%
    16:00 +36°C° 0 mm 3 mps 735 mmHg 54%
    17:00 +35°C° 0 mm 2 mps 735 mmHg 58%
    18:00 +34°C° 0 mm 3 mps 735 mmHg 61%
    19:00 +33°C° 0 mm 3 mps 735 mmHg 64%
    20:00 +31°C° 0 mm 3 mps 736 mmHg 67%
    21:00 +31°C° 0 mm 3 mps 736 mmHg 69%
    22:00 +31°C° 0 mm 3 mps 736 mmHg 71%
    23:00 +30°C° 0 mm 3 mps 737 mmHg 73%

    22 September, Saturday

    Time Temperature Precipitation Wind Pressure Humidity
    00:00 +30°C° 0 mm 3 mps 736 mmHg 74%
    01:00 +29°C° 0 mm 3 mps 736 mmHg 75%
    02:00 +29°C° 0 mm 3 mps 736 mmHg 76%
    03:00 +29°C° 0.1 mm 3 mps 736 mmHg 76%
    04:00 +28°C° 0.1 mm 3 mps 736 mmHg 76%
    05:00 +28°C° 0.1 mm 4 mps 736 mmHg 76%
    06:00 +28°C° 0.5 mm 4 mps 736 mmHg 77%
    07:00 +28°C° 0.5 mm 5 mps 737 mmHg 78%
    08:00 +28°C° 0.5 mm 6 mps 738 mmHg 79%
    09:00 +27°C° 2.7 mm 6 mps 738 mmHg 81%
    10:00 +27°C° 2.7 mm 6 mps 738 mmHg 83%
    11:00 +26°C° 2.7 mm 5 mps 738 mmHg 85%
    12:00 +26°C° 1.9 mm 5 mps 738 mmHg 84%
    13:00 +26°C° 1.9 mm 4 mps 737 mmHg 84%
    14:00 +26°C° 1.9 mm 4 mps 737 mmHg 83%
    15:00 +26°C° 0.2 mm 4 mps 736 mmHg 83%
    16:00 +26°C° 0.2 mm 4 mps 736 mmHg 82%
    17:00 +26°C° 0.2 mm 4 mps 736 mmHg 82%
    18:00 +26°C° 0.3 mm 4 mps 736 mmHg 83%
    19:00 +25°C° 0.3 mm 4 mps 736 mmHg 83%
    20:00 +25°C° 0.3 mm 4 mps 737 mmHg 84%
    21:00 +25°C° 0.1 mm 4 mps 737 mmHg 83%
    22:00 +25°C° 0.1 mm 4 mps 737 mmHg 83%
    23:00 +25°C° 0.1 mm 4 mps 737 mmHg 83%

    23 September, Sunday

    Time Temperature Precipitation Wind Pressure Humidity
    00:00 +25°C° 0 mm 3 mps 737 mmHg 83%
    01:00 +25°C° 0 mm 3 mps 736 mmHg 84%
    02:00 +25°C° 0 mm 3 mps 736 mmHg 84%
    03:00 +25°C° 0.1 mm 3 mps 736 mmHg 85%
    04:00 +25°C° 0.1 mm 3 mps 736 mmHg 86%
    05:00 +25°C° 0.1 mm 3 mps 736 mmHg 87%
    06:00 +26°C° 0.2 mm 3 mps 737 mmHg 83%
    07:00 +27°C° 0.2 mm 4 mps 737 mmHg 79%
    08:00 +28°C° 0.2 mm 4 mps 738 mmHg 76%
    09:00 +30°C° 0.4 mm 4 mps 738 mmHg 69%
    10:00 +33°C° 0.4 mm 4 mps 738 mmHg 63%
    11:00 +34°C° 0.4 mm 4 mps 737 mmHg 57%
    12:00 +35°C° 0.2 mm 4 mps 737 mmHg 56%
    13:00 +35°C° 0.2 mm 4 mps 736 mmHg 54%
    14:00 +36°C° 0.2 mm 4 mps 735 mmHg 52%
    15:00 +35°C° 0 mm 3 mps 735 mmHg 56%
    16:00 +34°C° 0 mm 3 mps 735 mmHg 60%
    17:00 +34°C° 0 mm 3 mps 734 mmHg 63%
    18:00 +31°C° 2 mm 3 mps 735 mmHg 68%
    19:00 +30°C° 2 mm 3 mps 735 mmHg 73%
    20:00 +29°C° 2 mm 3 mps 735 mmHg 77%
    21:00 +29°C° 2.3 mm 3 mps 735 mmHg 79%
    22:00 +29°C° 2.3 mm 3 mps 735 mmHg 80%
    23:00 +28°C° 2.3 mm 3 mps 736 mmHg 81%

    24 September, Monday

    Time Temperature Precipitation Wind Pressure Humidity
    00:00 +28°C° 2.9 mm 3 mps 735 mmHg 82%
    01:00 +28°C° 2.9 mm 3 mps 735 mmHg 83%
    02:00 +28°C° 2.9 mm 3 mps 734 mmHg 84%
    03:00 +27°C° 2.3 mm 3 mps 734 mmHg 84%
    04:00 +27°C° 2.3 mm 3 mps 734 mmHg 85%
    05:00 +27°C° 2.3 mm 3 mps 734 mmHg 85%
    06:00 +27°C° 2 mm 3 mps 735 mmHg 85%
    07:00 +27°C° 2 mm 3 mps 735 mmHg 85%
    08:00 +27°C° 2 mm 4 mps 736 mmHg 86%
    09:00 +28°C° 0.9 mm 4 mps 736 mmHg 81%
    10:00 +29°C° 0.9 mm 4 mps 736 mmHg 77%
    11:00 +32°C° 0.9 mm 5 mps 736 mmHg 73%
    12:00 +32°C° 2.2 mm 5 mps 735 mmHg 73%
    13:00 +32°C° 2.2 mm 5 mps 734 mmHg 72%
    14:00 +32°C° 2.2 mm 4 mps 733 mmHg 72%
    15:00 +30°C° 4 mm 4 mps 733 mmHg 76%
    16:00 +30°C° 4 mm 3 mps 733 mmHg 79%
    17:00 +29°C° 4 mm 3 mps 733 mmHg 82%
    18:00 +28°C° 4.9 mm 3 mps 733 mmHg 83%
    19:00 +28°C° 4.9 mm 3 mps 734 mmHg 84%
    20:00 +28°C° 4.9 mm 3 mps 734 mmHg 84%
    21:00 +28°C° 2.9 mm 3 mps 734 mmHg 85%
    22:00 +27°C° 2.9 mm 3 mps 734 mmHg 86%
    23:00 +27°C° 2.9 mm 3 mps 734 mmHg 86%
    Show more